Tracking 18843 objects as of 20-November-2017
HD Live streaming from Space Station
objects crossing your sky now

FENGYUN 1C DEB

Track FENGYUN 1C DEB now!
10-day predictions


NORAD ID: 37454
Int'l Code: 1999-025EHY
Perigee: 586.9 km
Apogee: 653.7 km
Inclination: 99.0 °
Period: 97.0 minutes
Semi major axis: 6991 km
RCS: 0.0119 m2 (small)
Launch date: May 10, 1999
Source: People's Republic of China (PRC)
Launch site: Taiyaun Space Center, China (TSC)

Note: This is SATELLITE DEBRIS
aabbcc
Your satellite tracking list
Your tracking list is empty




NASA's NSSDC Master Catalog

Two Line Element Set (TLE):
1 37454U 99025EHY 17321.30153228  .00008800  00000-0  10146-2 0  9996
2 37454  98.9691 273.2595 0047787 326.6499  33.1704 14.85137320401447
Source of the keplerian elements: AFSPC